Regional Weather Roundup
Issued by NWS State College, PA

Home | Current Version | Previous Version | Text Only | Print | Product List | Glossary On
Versions: 1 2 3 4 5 6 7 8 9 10 11 12 13 14 15 16 17 18 19 20 21 22 23 24 25 26 27 28 29 30 31 32 33 34 35 36 37 38 39 40 41 42 43 44 45 46 47 48 49 50
000
ASUS41 KCTP 280510
RWRCTP

REGIONAL WEATHER ROUNDUP
NATIONAL WEATHER SERVICE STATE COLLEGE PA
100 AM EDT THU AUG 28 2014

Note: "fair" indicates few or no clouds below 12,000 feet with no
significant weather and/or obstructions to visibility.

* = STATION THAT DOES NOT REPORT PRECIPITATION /E.G. RAIN...SNOW...ETC/
    THUNDER OR FOG.

PAZ002>004-007>009-013>016-020>023-029>032-280600-
WESTERN PENNSYLVANIA

CITY           SKY/WX    TMP DP  RH WIND       PRES   REMARKS
ERIE           CLEAR     66  52  60 N12       30.09S
MEADVILLE      PTCLDY    59  54  83 N6        30.10S
FRANKLIN*      PTCLDY    59  54  82 CALM      30.10F
NEW CASTLE     FAIR      62  59  90 CALM      30.10F
BEAVER COUNTY  NOT AVBL
BUTLER*        MOCLDY    63  57  82 N3        30.10F
PITTSBURGH INT MOCLDY    66  59  78 N13       30.07F
PITTSBURGH     MOCLDY    66  59  78 N7        30.06F
INDIANA*       CLEAR     64  61  88 CALM      30.10S
LATROBE        PTCLDY    66  66 100 N5        30.07S
WASHINGTON CO* PTCLDY    64  61  88 N7        30.08S
$$

PAZ004>006-010>012-017>019-024>028-033>037-041-042-045-046-049>053-280600-
CENTRAL PENNSYLVANIA

CITY           SKY/WX    TMP DP  RH WIND       PRES   REMARKS
BRADFORD       CLEAR     55  52  89 CALM      30.08F
DUBOIS         PTCLDY    60  58  92 NW5       30.06F
CLEARFIELD     PTCLDY    63  59  87 NW8       30.06S
JOHNSTOWN      CLOUDY    63  61  93 NE6       30.08S
ALTOONA        CLOUDY    69  65  86 NE3       30.04S
STATE COLLEGE  PTCLDY    67  60  76 N5        30.02S
WILLIAMSPORT   PTCLDY    71  61  70 N3        29.98R
SELINSGROVE    CLOUDY    70  68  93 N6        29.97S
FT INDIANTOWN  PTCLDY    73  71  95 N5        29.94S
CAPITAL CITY   MOCLDY    78  67  68 VRB5      29.94R
HARRISBURG     MOCLDY    77  67  71 N6        29.92S
YORK           NOT AVBL
$$

PAZ038>040-043-044-047-048-054-055-060>062-067>071-280600-
EASTERN PENNSYLVANIA

CITY           SKY/WX    TMP DP  RH WIND       PRES   REMARKS
SCRANTON       PTCLDY    71  58  63 N10       29.98S
MOUNT POCONO   PTCLDY    66  61  84 NW5       29.99S
ALLENTOWN      MOCLDY    75  68  78 N3        29.92S
QUAKERTOWN*    PTCLDY    75  68  78 MISG      29.92S
READING        MOCLDY    73  66  78 CALM      29.91F
LANCASTER      PTCLDY    72  67  84 N6        29.92S
COATESVILLE    PTCLDY    73  70  88 N7        29.93S
POTTSTOWN      PTCLDY    75  67  76 VRB5      29.92S
BLUE BELL      PTCLDY    77  70  78 N3        29.88F
DOYLESTOWN     NOT AVBL
WILLOW GROVE   NOT AVBL
NORTH PHILA    CLEAR     78  65  63 W5        29.88F
PHILADELPHIA   CLOUDY    77  68  73 W7        29.88F
$$



USA.gov is the U.S. government's official web portal to all federal, state and local government web resources and services.